Showing default

QIANFAN-49, 62250

Orbit data source: Space-Track

QIANFAN-49, 62250 is a Chinese payload satellite in LEO that was launched on Thu, 05 Dec 2024 UTC via a CHANG ZHENG 6A launch vehicle from the Taiyaun Space Center, China (TSC). Payload-class satellites include a variety of spacecraft equipped with specific instruments for various scientific and technological missions. These include communications satellites like Starlink; space stations such as the ISS; scientific satellites like the Hubble; Earth observation satellites from companies like Planet Labs, Umbra, and HawkEye 360; GPS; miniature CubeSats for education and research; and military/defense satellites.

Loading next visibility...
Identifier
62250, 2024-232P
Orbit
LEO
Last TLE update
4 hours ago
Origin
Manufacturer
SECM
Mission
Operational Commercial Communications
Bus & Motor
QIANFAN, Unknown motor
Mass
267 kg wet, ~267 kg dry
Launch date (UTC)
2024-12-05 (7 months ago)
Launch vehicle
CHANG ZHENG 6A
Launch site
Taiyaun Space Center, China (TSC)
Object type
Payload
Rocket body
Debris
Shape & HBR
Box + 1 Pan, 10 m
Radar Cross Section
13.200 m², Large (>1 m²)

Expand to show TLE details & history

TLE from 4 hours ago
0 QIANFAN-49
1 62250U 24232P   25192.19253129  .00000089  00000-0  11903-3 0  9993
2 62250  88.9945  56.8724 0012377 285.3410  74.6374 13.50958897 46977
Epoch: 2025-07-11T04:37Z
TLE epoch observation values (Epoch: 2025-07-11T04:37:14.703Z)
Latitude
0.00007°
Longitude
58.21315°
Altitude
1,069.254 km
Speed
7.319 km/s
True Right ascension
03h 47m 29s
True Declination
0° 00' 00"
Sunlit
Object was in daylight at epoch
Visualization orbit readout
Latitude
63.722°
Longitude
60.22342°
Altitude
1,086.714 km
Speed
7.311 km/s
Apparent Right ascension
06h 53m 41s
Apparent Declination
21° 16' 58"
Sunlit
Object is in daylight
Visualization observer readout
Local Sidereal Time
20:46:56
Azimuth
28.774° NE
Elevation
-23.345°
Doppler factor
1
Orbital elements
Apogee altitude
1,074.997 km
Perigee altitude
1,056.57 km
Semi-major axis
7,443.921 km
Eccentricity
0.00124
Inclination
88.9945°
RAAN
56.8724°
Arg. of periapsis
285.341°
True anomaly
Unknown
Mean anomaly
74.6374°
Eccentric anomaly
Unknown
Mean motion
3.37941 °/min
Orbital period
106.53 mins
BSTAR
0.00011903
Loading maneuver chart data...
Loading SW <> Apogee altitude chart data...
Loading historical data...
Loading historical data...
Loading historical data...
Loading historical data...
Loading historical data...
Loading historical data...
Loading historical data...

QIANFAN-49 Visibility forecast

Observer location: undefined°, undefined°

Span
Click to sort rows by Start time (UTC) header in descending order
Start Az.
Max El. time (UTC)
Max El. Az.
Max El.
End time (UTC)
End Az.
4 mins2025-07-11 13:41:23.472Z89.328° E2025-07-11 13:43:23.472Z70.894° E12.492°2025-07-11 13:45:23.472Z52.281° ENE
12 mins2025-07-11 15:23:23.472Z175.109° S2025-07-11 15:29:23.472Z19.808° NNE44.521°2025-07-11 15:35:23.472Z0.196° NNE
5 mins2025-07-11 17:14:23.472Z266.682° W2025-07-11 17:16:23.472Z286.074° WNW13.776°2025-07-11 17:19:23.472Z313.934° NW
11 mins2025-07-12 02:33:23.472Z19.368° NNE2025-07-12 02:38:23.472Z81.049° E33.71°2025-07-12 02:44:23.472Z152.892° SSE
10 mins2025-07-12 04:20:23.472Z334.088° NNW2025-07-12 04:24:23.472Z289.56° WNW27.005°2025-07-12 04:30:23.472Z223.887° SW
|